Location: Alma
(38.7220°N, 88.9090°W)
Time: 07:42:00
(UTC-06:00)

Vanguard 2 - Pass Details

Date: 18 November 2019
Orbit: 553 x 2938 km, 32.9° (Epoch: 10 December)

Event Time Altitude Azimuth Distance (km) Brightness Sun altitude
Rises 10:19:07 0° 258° (WSW) 4,651 11.4 28.9°
Reaches altitude 10° 10:22:56 10° 254° (WSW) 3,272 10.8 29.2°
Maximum altitude 10:30:10 49° 182° (S) 1,119 9.8 29.7°
Drops below altitude 10° 10:34:51 10° 107° (ESE) 2,135 10.4 30.0°
Sets 10:36:53 0° 101° (E) 2,910 10.9 30.1°
